Weather reports worldwide

Advertisment
Thomastown, United Kingdom (3901): temperature & dewpoint: 17.01.2019 23:00:00 - 23.01.2019 23:00:00 (GMT)Thomastown, United Kingdom (3901): temperature -20cm & temperature -100cm: 17.01.2019 23:00:00 - 23.01.2019 23:00:00 (GMT)Thomastown, United Kingdom (3901): wind speed & gusts: 17.01.2019 23:00:00 - 23.01.2019 23:00:00 (GMT)Thomastown, United Kingdom (3901): wind direction: 17.01.2019 23:00:00 - 23.01.2019 23:00:00 (GMT)Thomastown, United Kingdom (3901): reduced air pressure: 17.01.2019 23:00:00 - 23.01.2019 23:00:00 (GMT)Thomastown, United Kingdom (3901): visibility: 17.01.2019 23:00:00 - 23.01.2019 23:00:00 (GMT)Thomastown, United Kingdom (3901): sunshine duration: 17.01.2019 23:00:00 - 23.01.2019 23:00:00 (GMT)Thomastown, United Kingdom (3901): precipitation: 17.01.2019 23:00:00 - 23.01.2019 23:00:00 (GMT)
Date & Time tt [°C] td [°C] tt -20cm [°C] tt -100cm [°C] ff [km/h] ff [kn] fx [km/h] fx [kn] dd ppp [hPa] vv [km] sd [min] rr [mm]
23.01.2019 23:00:00 4,0 4,0 - - 0 0 - - N 1007,1 0,2 0 0,0
23.01.2019 22:00:00 4,2 4,2 - - 2 1 - - W 1006,7 1,0 0 0,2
23.01.2019 21:00:00 4,0 4,0 - - 4 2 - - S 1006,0 3,2 0 0,0
23.01.2019 20:00:00 3,9 3,8 - - 5 3 - - SSE 1005,9 6 0 0,0
23.01.2019 19:00:00 4,4 4,2 - - 9 5 - - SW 1005,5 9 0 0,2
23.01.2019 18:00:00 4,7 4,2 - - 8 4 - - WSW 1005,6 15 0 0,0
23.01.2019 17:00:00 4,6 3,9 - - 5 3 - - SW 1005,0 30 0 0,0
23.01.2019 16:00:00 4,4 3,7 - - 8 4 - - WSW 1004,8 30 0 0,0
23.01.2019 15:00:00 3,9 3,3 - - 4 2 - - SW 1004,8 35 0 0,0
23.01.2019 14:00:00 3,5 3,0 - - 8 4 - - SW 1004,4 45 0 0,0
23.01.2019 13:00:00 3,0 2,6 - - 8 4 - - SW 1004,5 30 0 0,6
23.01.2019 12:00:00 2,7 2,3 - - 9 5 - - WSW 1004,7 14 0 0,0
23.01.2019 11:00:00 2,0 1,5 - - 9 5 - - SW 1004,3 45 0 0,0
23.01.2019 10:00:00 0,4 0,3 - - 2 1 - - WSW 1004,5 22 0 0,0
23.01.2019 09:00:00 -0,1 -0,2 6,7 7,9 2 1 - - S 1004,2 30 0 0,0
23.01.2019 08:00:00 -0,4 -0,6 - - 2 1 - - SSW 1003,9 14 0 0,0
23.01.2019 07:00:00 -0,5 -0,7 - - 2 1 - - NNW 1003,4 24 0 0,0
23.01.2019 06:00:00 -0,5 -0,6 - - 5 3 - - SW 1003,0 35 0 0,0
23.01.2019 05:00:00 -1,2 -1,4 - - 5 3 - - WNW 1002,5 18 0 0,0
23.01.2019 04:00:00 -1,0 -1,1 - - 8 4 - - W 1002,1 13 0 0,0
23.01.2019 03:00:00 -1,1 -1,3 - - 2 1 - - W 1001,8 5 0 0,0
23.01.2019 02:00:00 -0,4 -0,6 - - 5 3 - - NNW 1001,6 17 0 0,0
23.01.2019 01:00:00 -0,3 -0,8 - - 5 3 - - WNW 1001,1 12 0 0,0
23.01.2019 00:00:00 0,5 0,3 - - 8 4 - - WNW 1000,6 22 - 0,0
22.01.2019 23:00:00 1,0 0,6 - - 4 2 - - WNW 1000,1 26 0 0,0
22.01.2019 22:00:00 1,5 1,1 - - 5 3 - - NW 999,4 24 0 0,0
22.01.2019 21:00:00 0,4 0,1 - - 4 2 - - W 999,0 9 0 0,0
22.01.2019 20:00:00 0,3 0,0 - - 4 2 - - ENE 999,1 10 0 0,0
22.01.2019 19:00:00 0,8 0,3 - - 4 2 - - WSW 998,9 29 0 0,2
22.01.2019 18:00:00 1,1 0,2 - - 4 2 - - SSW 998,5 50 0 0,0
22.01.2019 17:00:00 1,5 0,3 - - 8 4 - - W 998,3 40 0 0,0
22.01.2019 16:00:00 1,9 0,5 - - 4 2 - - SSW 998,2 45 30 0,0
22.01.2019 15:00:00 2,2 0,9 - - 8 4 - - SW 998,2 45 6 0,4
22.01.2019 14:00:00 2,0 1,3 - - 5 3 - - W 998,9 22 0 1,6
22.01.2019 13:00:00 2,0 1,2 - - 5 3 - - WSW 999,1 30 12 1,6
22.01.2019 12:00:00 0,7 0,3 - - 5 3 - - SSW 999,9 22 0 1,4
22.01.2019 11:00:00 1,8 1,1 - - 8 4 - - WSW 1000,1 35 18 0,8
22.01.2019 10:00:00 1,1 0,8 - - 9 5 - - WSW 1000,3 30 6 0,2
22.01.2019 09:00:00 0,5 0,3 7,0 8,0 9 5 - - WSW 1000,4 3,6 0 0,0
22.01.2019 08:00:00 0,3 0,2 - - 8 4 - - SSW 1000,3 23 0 0,2
22.01.2019 07:00:00 0,2 0,1 - - 9 5 - - WSW 1000,5 28 0 0,0
22.01.2019 06:00:00 0,3 0,1 - - 9 5 - - SSW 1001,1 1,4 0 0,2
22.01.2019 05:00:00 0,4 0,2 - - 9 5 - - S 1001,7 1,8 0 0,4
22.01.2019 04:00:00 0,5 0,2 - - 8 4 - - WSW 1002,5 12 0 0,4
22.01.2019 03:00:00 0,7 0,5 - - 9 5 - - S 1003,2 30 0 0,0
22.01.2019 02:00:00 0,5 0,2 - - 9 5 - - SSW 1004,1 35 0 0,0
22.01.2019 01:00:00 1,3 0,6 - - 13 7 - - NW 1004,7 40 0 0,4
22.01.2019 00:00:00 0,9 0,0 - - 8 4 - - SW 1004,2 6 - 0,0
21.01.2019 23:00:00 1,9 1,3 - - 13 7 - - WSW 1003,9 8 0 0,2
21.01.2019 22:00:00 1,3 0,7 - - 8 4 - - SSW 1003,9 28 0 0,8
21.01.2019 21:00:00 1,3 0,7 - - 2 1 - - SW 1004,2 26 0 0,2
21.01.2019 20:00:00 1,8 1,1 - - 9 5 - - WNW 1004,5 20 0 0,8
21.01.2019 19:00:00 1,9 1,2 - - 4 2 - - W 1004,8 19 0 0,8
21.01.2019 18:00:00 2,8 1,8 - - 13 7 - - WSW 1004,5 35 0 0,2
21.01.2019 17:00:00 3,2 2,3 - - 22 12 46 25 W 1004,9 15 0 1,4
21.01.2019 16:00:00 4,6 3,7 - - 29 16 52 28 SSW 1004,4 13 0 0,8
21.01.2019 15:00:00 4,6 3,4 - - 34 18 48 26 S 1005,9 15 0 0,6
21.01.2019 14:00:00 4,3 2,6 - - 31 17 54 29 S 1008,2 14 0 0,2
21.01.2019 13:00:00 3,8 2,0 - - 31 17 55 30 S 1010,7 11 0 0,0
21.01.2019 12:00:00 3,5 1,3 - - 26 14 - - S 1013,2 26 0 0,0
21.01.2019 11:00:00 2,3 1,1 - - 13 7 - - SSE 1015,4 26 0 0,0
21.01.2019 10:00:00 1,8 0,7 - - 15 8 - - SE 1017,1 25 0 0,0
21.01.2019 09:00:00 2,4 0,6 7,5 8,2 22 12 - - S 1018,0 30 0 0,0
21.01.2019 08:00:00 2,2 0,5 - - 24 13 - - S 1019,2 25 0 0,2
21.01.2019 07:00:00 0,7 0,0 - - 11 6 - - SE 1020,8 20 0 0,0
21.01.2019 06:00:00 -0,2 -0,5 - - 4 2 - - ESE 1021,9 19 0 0,0
21.01.2019 05:00:00 -0,7 -0,8 - - 8 4 - - SE 1022,7 16 0 0,0
21.01.2019 04:00:00 -0,6 -0,7 - - 9 5 - - SE 1023,6 13 0 0,0
21.01.2019 03:00:00 -0,4 -0,6 - - 8 4 - - S 1024,5 14 0 0,0
21.01.2019 02:00:00 -1,2 -1,4 - - 9 5 - - SE 1025,2 11 0 0,0
21.01.2019 01:00:00 -0,4 -0,6 - - 5 3 - - SE 1025,8 13 0 0,0
21.01.2019 00:00:00 -0,9 -1,3 - - 9 5 - - SE 1026,3 14 - 0,0
20.01.2019 23:00:00 -0,2 -0,6 - - 2 1 - - SW 1026,7 18 0 0,0
20.01.2019 22:00:00 0,7 0,5 - - 2 1 - - SSW 1026,3 19 0 0,0
20.01.2019 21:00:00 0,0 -0,5 - - 2 1 - - NNW 1026,4 14 0 0,0
20.01.2019 20:00:00 0,7 0,4 - - 9 5 - - SSE 1026,2 11 0 0,0
20.01.2019 19:00:00 2,0 1,3 - - 4 2 - - W 1025,5 15 0 0,0
20.01.2019 18:00:00 3,1 1,6 - - 5 3 - - NW 1025,1 16 0 0,0
20.01.2019 17:00:00 4,0 2,6 - - 5 3 - - WNW 1024,5 19 0 0,0
20.01.2019 16:00:00 4,8 3,1 - - 5 3 - - NNW 1024,0 27 6 0,0
20.01.2019 15:00:00 4,2 3,1 - - 11 6 54 29 NW 1023,6 27 6 0,6
20.01.2019 14:00:00 6,8 1,8 - - 16 9 - - NNW 1022,8 30 54 0,0
20.01.2019 13:00:00 7,0 3,0 - - 13 7 - - NNW 1022,4 29 60 0,0
20.01.2019 12:00:00 6,1 3,2 - - 11 6 - - NNW 1021,9 23 24 0,0
20.01.2019 11:00:00 6,0 3,9 - - 11 6 - - NW 1021,4 25 6 0,0
20.01.2019 10:00:00 5,9 3,5 - - 21 11 - - NNW 1020,2 27 0 0,0
20.01.2019 09:00:00 5,9 4,5 7,7 8,2 18 10 - - NNW 1018,8 28 0 0,2
20.01.2019 08:00:00 6,0 5,8 - - 16 9 - - NNW 1017,3 3,7 0 0,0
20.01.2019 07:00:00 4,4 4,4 - - 4 2 - - WNW 1016,1 3,1 0 0,6
20.01.2019 06:00:00 4,1 4,1 - - 4 2 - - WNW 1015,3 3,1 0 0,6
20.01.2019 05:00:00 3,6 3,5 - - 4 2 - - W 1014,4 6 0 0,0
20.01.2019 04:00:00 3,3 3,2 - - 2 1 - - N 1013,9 9 0 0,0
20.01.2019 03:00:00 3,2 3,0 - - 2 1 - - NE 1013,2 4,2 0 0,0
20.01.2019 02:00:00 3,3 3,1 - - 4 2 - - SW 1012,6 0,6 0 0,0
20.01.2019 01:00:00 3,5 3,2 - - 0 0 - - N 1012,2 9 0 0,0
20.01.2019 00:00:00 3,3 3,0 - - 2 1 - - ENE 1011,7 17 - 0,0
19.01.2019 23:00:00 3,5 3,0 - - 2 1 - - WSW 1011,0 13 0 0,0
19.01.2019 22:00:00 4,4 3,9 - - 2 1 - - W 1010,2 28 0 0,0
19.01.2019 21:00:00 4,4 4,1 - - 4 2 - - ESE 1009,6 11 0 0,0
19.01.2019 20:00:00 4,9 4,3 - - 4 2 - - WSW 1008,8 11 0 0,0
19.01.2019 19:00:00 5,6 4,9 - - 4 2 - - W 1008,4 22 0 0,0
19.01.2019 18:00:00 6,1 5,1 - - 2 1 - - N 1007,9 24 0 0,0
19.01.2019 17:00:00 6,4 4,9 - - 2 1 - - N 1007,2 30 0 0,2
19.01.2019 16:00:00 6,9 5,2 - - 4 2 - - WSW 1006,5 30 36 0,0
19.01.2019 15:00:00 7,5 5,6 - - 5 3 - - W 1005,9 29 18 0,0
19.01.2019 14:00:00 6,9 5,2 - - 2 1 - - SSW 1006,0 30 0 0,0
19.01.2019 13:00:00 6,8 5,7 - - 4 2 - - W 1005,9 25 0 0,0
19.01.2019 12:00:00 6,5 6,1 - - 0 0 - - N 1005,8 22 0 0,0
19.01.2019 11:00:00 5,9 5,9 - - 2 1 - - ENE 1005,6 11 0 0,0
19.01.2019 10:00:00 5,2 5,1 - - 4 2 - - E 1005,2 5 0 0,0
19.01.2019 09:00:00 5,0 4,8 7,7 8,2 4 2 - - E 1004,5 9 0 0,0
19.01.2019 08:00:00 5,1 5,0 - - 0 0 - - N 1003,9 2,7 0 0,0
19.01.2019 07:00:00 5,3 5,2 - - 4 2 - - SE 1003,4 8 0 0,0
19.01.2019 06:00:00 5,3 5,2 - - 4 2 - - ESE 1003,0 6 0 0,0
19.01.2019 05:00:00 5,3 5,3 - - 5 3 - - ESE 1002,8 3,3 0 0,0
19.01.2019 04:00:00 5,4 5,3 - - 8 4 - - SE 1002,7 7 0 0,0
19.01.2019 03:00:00 5,4 5,3 - - 8 4 - - SE 1002,6 9 0 0,2
19.01.2019 02:00:00 5,5 5,4 - - 9 5 - - SE 1002,5 8 0 0,0
19.01.2019 01:00:00 5,7 5,4 - - 11 6 - - SE 1002,4 14 0 0,2
19.01.2019 00:00:00 5,6 5,3 - - 11 6 - - SE 1002,4 13 - 0,2
18.01.2019 23:00:00 5,7 5,3 - - 11 6 - - SE 1002,2 13 0 0,4
18.01.2019 22:00:00 5,8 5,3 - - 13 7 - - SE 1002,2 13 0 0,0
18.01.2019 21:00:00 5,8 5,2 - - 15 8 - - SE 1002,0 30 0 0,0
18.01.2019 20:00:00 6,0 5,6 - - 13 7 - - SSE 1002,1 16 0 0,0
18.01.2019 19:00:00 6,1 5,7 - - 13 7 - - SE 1002,1 11 0 0,0
18.01.2019 18:00:00 6,2 5,8 - - 9 5 - - SSE 1002,3 6 0 0,0
18.01.2019 17:00:00 6,2 5,8 - - 13 7 - - SE 1002,2 10 0 0,0
18.01.2019 16:00:00 6,2 5,9 - - 8 4 - - SE 1002,4 17 0 0,0
18.01.2019 15:00:00 6,0 5,8 - - 8 4 - - SSE 1002,7 10 0 0,0
18.01.2019 14:00:00 5,6 5,5 - - 13 7 - - SE 1003,1 5 0 0,0
18.01.2019 13:00:00 5,1 5,0 - - 15 8 - - SE 1003,3 12 0 0,0
18.01.2019 12:00:00 4,4 4,3 - - 13 7 - - SE 1003,8 11 0 0,0
18.01.2019 11:00:00 3,6 3,5 - - 16 9 - - SSE 1004,2 8 0 0,0
18.01.2019 10:00:00 3,0 3,0 - - 16 9 - - SSE 1004,3 5 0 0,2
18.01.2019 09:00:00 1,9 1,9 7,7 8,4 18 10 - - SE 1004,6 4,3 0 0,0
18.01.2019 08:00:00 1,2 1,1 - - 21 11 - - SE 1004,7 4,5 0 0,6
18.01.2019 07:00:00 0,8 0,6 - - 21 11 - - SE 1005,3 8 0 1,6
18.01.2019 06:00:00 0,7 0,5 - - 29 16 - - SE 1005,7 6 0 1,2
18.01.2019 05:00:00 0,5 0,2 - - 28 15 - - SE 1006,7 2,4 0 1,6
18.01.2019 04:00:00 0,6 0,0 - - 21 11 - - SE 1008,2 6 0 0,2
18.01.2019 03:00:00 2,1 -1,0 - - 24 13 - - SE 1009,0 30 0 0,0
18.01.2019 02:00:00 1,7 -1,0 - - 24 13 - - SE 1010,2 23 0 0,0
18.01.2019 01:00:00 1,3 -0,7 - - 26 14 - - SE 1011,1 19 0 0,0
18.01.2019 00:00:00 1,0 -0,7 - - 16 9 - - SE 1012,2 16 - 0,0
17.01.2019 23:00:00 1,0 -0,5 - - 21 11 - - SE 1013,0 18 0 0,0

tt = temperature
td = dewpoint
tt -20cm = temperature -20cm
tt -100cm = temperature -100cm
ff = wind speed
fx = gusts
dd = wind direction
ppp = reduced air pressure
vv = visibility
sd = sunshine duration
rr = precipitation

Next stations